Location: Kergonan
(48.2337°N, 4.5518°W)
Time: 18:45:33
(UTC+00:00)

Cosmos 1697 Rocket - Pass Details

Date: 18 January 2020
Orbit: 833 x 843 km, 71.0° (Epoch: 16 February)

Event Time Altitude Azimuth Distance (km) Brightness Sun altitude
Rises 07:11:06 0° 243° (WSW) 3,374 5.4 -8.5°
Reaches altitude 10° 07:13:52 10° 255° (WSW) 2,443 4.6 -8.0°
Maximum altitude 07:18:38 28° 313° (NW) 1,525 3.5 -7.3°
Drops below altitude 10° 07:23:26 10° 12° (NNE) 2,454 5.0 -6.6°
Sets 07:26:15 0° 24° (NNE) 3,393 5.8 -6.2°
